Location: Ch�risy
(50.2331°N, 2.9131°E)
Time: 02:14:56
(UTC+00:00)

Cosmos 2058 Rocket - Pass Details

Date: 17 January 2021
Orbit: 611 x 638 km, 82.5° (Epoch: 28 February)

Event Time Altitude Azimuth Distance (km) Brightness Sun altitude
Rises 18:00:54 0° 352° (N) 2,937 6.5 -16.0°
Reaches altitude 10° 18:03:10 10° 356° (N) 2,028 5.6 -16.4°
Maximum altitude 18:07:37 59° 77° (ENE) 737 3.1 -17.1°
Drops below altitude 10° 18:12:04 10° 157° (SSE) 2,023 5.6 -17.8°
Sets 18:14:20 0° 161° (SSE) 2,929 6.4 -18.1°
